Regional Weather Roundup
Issued by NWS

Home | Current Version | Previous Version | Graphics & Text | Print | Product List | Glossary On
Versions: 1 2 3 4 5 6 7 8 9 10 11 12 13 14 15 16 17 18 19 20 21 22 23 24 25 26 27 28 29 30 31 32 33 34 35 36 37 38 39 40 41 42 43 44 45 46 47 48 49 50
000
ASUS43 KBIS 292210
RWRND

NORTH DAKOTA REGIONAL WEATHER ROUNDUP
NATIONAL WEATHER SERVICE BISMARCK ND
500 PM CDT FRI APR 29 2016

NOTE: "FAIR" INDICATES FEW OR NO CLOUDS BELOW 12,000 FEET WITH NO
SIGNIFICANT WEATHER AND/OR OBSTRUCTIONS TO VISIBILITY.


NDZ001>003-009>011-017-292300-
NORTHWEST NORTH DAKOTA

CITY           SKY/WX    TMP DP  RH WIND       PRES   REMARKS
WILLISTON      PTSUNNY   60  27  28 SE10G22   30.11S
MINOT          SUNNY     65  21  18 E13G24    30.13S
MINOT AFB      SUNNY     61  25  25 E10G22    30.12F
$$

NDZ018>021-031>035-040>046-292300-
SOUTHWEST NORTH DAKOTA

CITY           SKY/WX    TMP DP  RH WIND       PRES   REMARKS
BISMARCK       MOSUNNY   60  33  36 SE15G26   30.11S
DICKINSON      CLOUDY    55  27  34 E14G21    30.08S
GARRISON         N/A     61  26  26 E16       30.11F
HETTINGER ARPT CLOUDY    54  28  36 E13       30.09F
$$

NDZ004>008-012>016-024-026-027-054-292300-
NORTHEAST NORTH DAKOTA

CITY           SKY/WX    TMP DP  RH WIND       PRES   REMARKS
GRAND FORKS    MOSUNNY   64  32  30 NE14      30.14R
GRND FRKS AFB  SUNNY     62  30  29 E13G21    30.14R
DEVILS LAKE    SUNNY     60  27  28 E15       30.16R
$$

NDZ022-023-025-028>030-036>039-047>053-292300-
SOUTHEAST NORTH DAKOTA

CITY           SKY/WX    TMP DP  RH WIND       PRES   REMARKS
FARGO          SUNNY     65  31  28 NE10      30.09S
JAMESTOWN      MOSUNNY   61  31  32 E9        30.12R
$$





USA.gov is the U.S. government's official web portal to all federal, state and local government web resources and services.